This is the latest recevied weather packets stored in our database for station/object KD8JAM. If no packets are shown the sender has not sent any weather packets the latest 10 day(s).
| Time | Temp. | Humidity | Pressure | Rain* | Wind** | Luminosity | Snow |
|---|---|---|---|---|---|---|---|
| 1777562748 | 2.22° C | 81% | 1018 hPa | 0 mm | - | 404 W/m² | - |
| 1777562447 | 2.22° C | 82% | 1018 hPa | 0 mm | - | 397 W/m² | - |
| 1777562144 | 2.78° C | 81% | 1017.8 hPa | 0 mm | - | 368 W/m² | - |
| 1777561841 | 2.22° C | 82% | 1018.1 hPa | 0 mm | - | 417 W/m² | - |
| 1777561538 | 2.78° C | 83% | 1018 hPa | 0 mm | - | 349 W/m² | - |
| 1777561233 | 2.22° C | 84% | 1017.8 hPa | 0 mm | - | 383 W/m² | - |
| 1777560932 | 2.22° C | 84% | 1018.1 hPa | 0 mm | - | 332 W/m² | - |
| 1777560630 | 2.22° C | 84% | 1017.9 hPa | 0 mm | - | 337 W/m² | - |
| 1777560327 | 1.67° C | 85% | 1018.2 hPa | 0 mm | - | 301 W/m² | - |
| 1777560025 | 1.67° C | 84% | 1018.1 hPa | 1.78 mm | - | 314 W/m² | - |
| 1777559721 | 1.67° C | 87% | 1018.1 hPa | 1.78 mm | - | 321 W/m² | - |
| 1777559418 | 1.67° C | 85% | 1017.9 hPa | 0 mm | - | 276 W/m² | - |
| 1777559115 | 1.67° C | 91% | 1017.9 hPa | 0 mm | - | 256 W/m² | - |
| 1777558809 | 1.11° C | 88% | 1018.1 hPa | 0 mm | - | 247 W/m² | - |
| 1777558505 | 1.11° C | 88% | 1018.1 hPa | 0 mm | - | 232 W/m² | - |
| 1777558196 | 1.67° C | 92% | 1018.2 hPa | 0 mm | - | 229 W/m² | - |
| 1777557892 | 1.11° C | 92% | 1018.1 hPa | 0 mm | - | 209 W/m² | - |
| 1777557589 | 1.11° C | 92% | 1018 hPa | 0 mm | - | 196 W/m² | - |
| 1777557285 | 1.11° C | 93% | 1018.1 hPa | 0 mm | - | 186 W/m² | - |
| 1777556982 | 1.11° C | 93% | 1018.1 hPa | 0 mm | - | 188 W/m² | - |
| 1777556677 | 1.11° C | 93% | 1017.9 hPa | 0 mm | - | 174 W/m² | - |
| 1777556374 | 0.56° C | 94% | 1018 hPa | 0 mm | - | 164 W/m² | - |
| 1777556074 | 0.56° C | 95% | 1018.2 hPa | 0 mm | - | 165 W/m² | - |
| 1777555768 | 0.56° C | 95% | 1018.2 hPa | 0 mm | - | 176 W/m² | - |
| 1777555465 | 0.56° C | 96% | 1018.1 hPa | 0 mm | - | 173 W/m² | - |
* Rain latest hour (hover to see other rain measurements)
** Current wind speed in m/s (hover to see current wind gust speed)